Beach, ND

8:49 AM MDT on June 23, 2017 (GMT -0600)
Beach

Weather History for K20U - September, 2012

Change the Weather History Date:

Wednesday, September 12, 2012

  Actual Average (KGDV) Record (KGDV)
Temperature  
Mean Temperature 47 °F -  
Max Temperature 66 °F 72 °F 86 °F (2015)
Min Temperature 28 °F 46 °F 26 °F (2014)
Degree Days  
Heating Degree Days 18    
Moisture  
Dew Point 19 °F    
Average Humidity 35    
Maximum Humidity 69    
Minimum Humidity 14    
Precipitation  
Precipitation 0.00 in - - ()
Sea Level Pressure  
Sea Level Pressure 30.26 in    
Wind  
Wind Speed 6 mph (West)    
Max Wind Speed 17 mph    
Max Gust Speed 31 mph    
Visibility 10 miles    
Events      
Averages and records for this station are not official NWS values.
T = Trace of Precipitation, MM = Missing Value Source: NWS Daily Summary

Daily Weather History Graph

Daily Weather History Graph

Search for Another Location

Airport or City:

Trip Planner

Search our weather history database for the weather conditions in past years. The results will help you decide how hot, cold, wet, or windy it might be!

Date:

Astronomy

Sep. 12, 2012 Rise Set
Actual Time 6:30 AM MDT 7:12 PM MDT
Civil Twilight 5:59 AM MDT 7:43 PM MDT
Nautical Twilight 5:23 AM MDT 8:19 PM MDT
Astronomical Twilight 4:44 AM MDT 8:57 PM MDT
Moon 2:38 AM MDT (9/12) 5:10 PM MDT (9/12)
Length of Visible Light 13h 43m
Length of Day
12h 42m
Waning Crescent, 13% of the Moon is Illuminated
Sep 12
Waning Crescent
Sep 15
New
Sep 22
First Quarter
Sep 29
Full
Oct 8
Last Quarter

Hourly Weather History & Observations

Time (MDT) Temp. Windchill Dew Point Humidity Pressure Visibility Wind Dir Wind Speed Gust Speed Precip Events Conditions
12:15 AM 35.6 °F 31.7 °F 21.2 °F 56% 30.14 in 10.0 mi SW 4.6 mph - N/A   Clear
12:35 AM 41.0 °F 35.8 °F 19.4 °F 42% 30.14 in 10.0 mi WSW 8.1 mph - N/A   Clear
12:55 AM 41.0 °F 38.0 °F 19.4 °F 42% 30.14 in 10.0 mi WSW 4.6 mph - N/A   Clear
1:15 AM 37.4 °F 34.9 °F 21.2 °F 52% 30.15 in 10.0 mi SW 3.5 mph - N/A   Clear
1:35 AM 35.6 °F - 21.2 °F 56% 30.15 in 10.0 mi Calm Calm - N/A   Clear
1:55 AM 37.4 °F 34.9 °F 19.4 °F 48% 30.16 in 10.0 mi SSW 3.5 mph - N/A   Clear
2:15 AM 35.6 °F 30.7 °F 21.2 °F 56% 30.16 in 10.0 mi SW 5.8 mph - N/A   Clear
2:35 AM 39.2 °F 35.9 °F 19.4 °F 45% 30.17 in 10.0 mi WSW 4.6 mph - N/A   Clear
2:55 AM 37.4 °F 34.9 °F 19.4 °F 48% 30.17 in 10.0 mi SW 3.5 mph - N/A   Clear
3:15 AM 37.4 °F 32.1 °F 19.4 °F 48% 30.17 in 10.0 mi WSW 6.9 mph - N/A   Clear
3:35 AM 37.4 °F 34.9 °F 19.4 °F 48% 30.18 in 10.0 mi NNW 3.5 mph - N/A   Clear
3:55 AM 39.2 °F - 19.4 °F 45% 30.18 in 10.0 mi Calm Calm - N/A   Clear
4:15 AM 37.4 °F - 19.4 °F 48% 30.18 in 10.0 mi Calm Calm - N/A   Clear
4:35 AM 35.6 °F - 21.2 °F 56% 30.19 in 10.0 mi Calm Calm - N/A   Clear
4:55 AM 35.6 °F - 19.4 °F 52% 30.19 in 10.0 mi Calm Calm - N/A   Clear
5:15 AM 28.4 °F 23.3 °F 19.4 °F 69% 30.20 in 10.0 mi SSE 4.6 mph - N/A   Clear
5:35 AM 32.0 °F 25.6 °F 23.0 °F 69% 30.21 in 10.0 mi SSW 6.9 mph - N/A   Clear
5:55 AM 30.2 °F 26.7 °F 21.2 °F 69% 30.22 in 10.0 mi SW 3.5 mph - N/A   Clear
6:15 AM 35.6 °F 30.7 °F 19.4 °F 52% 30.22 in 10.0 mi SW 5.8 mph - N/A   Clear
6:55 AM 37.4 °F - 19.4 °F 48% 30.23 in 10.0 mi Calm Calm - N/A   Clear
7:15 AM 39.2 °F - 19.4 °F 45% 30.24 in 10.0 mi Calm Calm - N/A   Clear
7:35 AM 41.0 °F 36.4 °F 19.4 °F 42% 30.24 in 10.0 mi WSW 6.9 mph - N/A   Clear
7:55 AM 44.6 °F 41.4 °F 19.4 °F 37% 30.25 in 10.0 mi WSW 5.8 mph - N/A   Clear
8:15 AM 48.2 °F - 19.4 °F 32% 30.26 in 10.0 mi West 6.9 mph - N/A   Clear
8:35 AM 50.0 °F - 21.2 °F 32% 30.27 in 10.0 mi West 8.1 mph - N/A   Clear
8:55 AM 53.6 °F - 21.2 °F 28% 30.27 in 10.0 mi West 8.1 mph - N/A   Clear
9:15 AM 55.4 °F - 21.2 °F 26% 30.28 in 10.0 mi West 6.9 mph - N/A   Clear
9:35 AM 57.2 °F - 17.6 °F 21% 30.28 in 10.0 mi NW 10.4 mph - N/A   Clear
9:55 AM 57.2 °F - 17.6 °F 21% 30.29 in 10.0 mi NW 11.5 mph - N/A   Clear
10:15 AM 59.0 °F - 19.4 °F 22% 30.30 in 10.0 mi NW 9.2 mph - N/A   Clear
10:35 AM 59.0 °F - 19.4 °F 22% 30.30 in 10.0 mi NW 12.7 mph - N/A   Clear
10:55 AM 59.0 °F - 19.4 °F 22% 30.30 in 10.0 mi NW 10.4 mph 17.3 mph N/A   Clear
11:15 AM 60.8 °F - 19.4 °F 20% 30.31 in 10.0 mi WNW 9.2 mph 17.3 mph N/A   Clear
11:35 AM 62.6 °F - 19.4 °F 19% 30.31 in 10.0 mi NW 10.4 mph 18.4 mph N/A   Clear
11:55 AM 62.6 °F - 17.6 °F 18% 30.30 in 10.0 mi NW 13.8 mph 20.7 mph N/A   Clear
12:15 PM 62.6 °F - 17.6 °F 18% 30.30 in 10.0 mi WNW 10.4 mph - N/A   Clear
12:35 PM 64.4 °F - 15.8 °F 15% 30.30 in 10.0 mi WNW 8.1 mph 20.7 mph N/A   Clear
12:55 PM 64.4 °F - 17.6 °F 16% 30.30 in 10.0 mi West 15.0 mph 19.6 mph N/A   Clear
1:15 PM 64.4 °F - 15.8 °F 15% 30.29 in 10.0 mi NW 15.0 mph 26.5 mph N/A   Clear
1:35 PM 64.4 °F - 15.8 °F 15% 30.29 in 10.0 mi NW 15.0 mph 23.0 mph N/A   Clear
1:55 PM 66.2 °F - 15.8 °F 14% 30.29 in 10.0 mi NW 13.8 mph 20.7 mph N/A   Clear
2:15 PM 66.2 °F - 17.6 °F 15% 30.29 in 10.0 mi West 15.0 mph 25.3 mph N/A   Clear
2:35 PM 64.4 °F - 15.8 °F 15% 30.28 in 10.0 mi WNW 15.0 mph 21.9 mph N/A   Partly Cloudy
2:55 PM 64.4 °F - 15.8 °F 15% 30.27 in 10.0 mi West 11.5 mph 18.4 mph N/A   Clear
3:15 PM 64.4 °F - 15.8 °F 15% 30.27 in 10.0 mi WNW 10.4 mph 19.6 mph N/A   Partly Cloudy
3:55 PM 66.2 °F - 17.6 °F 15% 30.27 in 10.0 mi NW 17.3 mph 21.9 mph N/A   Mostly Cloudy
4:15 PM 64.4 °F - 17.6 °F 16% 30.27 in 10.0 mi NW 15.0 mph 26.5 mph N/A   Mostly Cloudy
4:35 PM 64.4 °F - 17.6 °F 16% 30.27 in 10.0 mi WNW 13.8 mph 31.1 mph N/A   Scattered Clouds
4:55 PM 64.4 °F - 17.6 °F 16% 30.27 in 10.0 mi WNW 17.3 mph - N/A   Scattered Clouds
5:15 PM 64.4 °F - 17.6 °F 16% 30.27 in 10.0 mi NW 13.8 mph 26.5 mph N/A   Scattered Clouds
5:35 PM 64.4 °F - 17.6 °F 16% 30.28 in 10.0 mi NW 13.8 mph 21.9 mph N/A   Partly Cloudy
5:55 PM 62.6 °F - 17.6 °F 18% 30.29 in 10.0 mi NW 15.0 mph 24.2 mph N/A   Clear
6:35 PM 60.8 °F - 17.6 °F 19% 30.30 in 10.0 mi NNW 13.8 mph 18.4 mph N/A   Clear
6:55 PM 57.2 °F - 17.6 °F 21% 30.30 in 10.0 mi NNW 10.4 mph - N/A   Clear
7:15 PM 53.6 °F - 17.6 °F 24% 30.30 in 10.0 mi NW 5.8 mph - N/A   Clear
7:35 PM 50.0 °F - 17.6 °F 28% 30.31 in 10.0 mi NW 8.1 mph - N/A   Clear
7:55 PM 48.2 °F - 17.6 °F 30% 30.32 in 10.0 mi NW 9.2 mph - N/A   Clear
8:15 PM 46.4 °F 42.9 °F 17.6 °F 32% 30.32 in 10.0 mi NW 6.9 mph - N/A   Clear
8:35 PM 44.6 °F 42.2 °F 15.8 °F 31% 30.33 in 10.0 mi NNW 4.6 mph - N/A   Clear
8:55 PM 42.8 °F 41.1 °F 15.8 °F 34% 30.33 in 10.0 mi North 3.5 mph - N/A   Clear
9:15 PM 39.2 °F - 15.8 °F 39% 30.33 in 10.0 mi Calm Calm - N/A   Clear
9:35 PM 37.4 °F - 17.6 °F 45% 30.34 in 10.0 mi Calm Calm - N/A   Clear
9:55 PM 37.4 °F 33.8 °F 17.6 °F 45% 30.34 in 10.0 mi South 4.6 mph - N/A   Clear
10:15 PM 37.4 °F 33.8 °F 21.2 °F 52% 30.33 in 10.0 mi South 4.6 mph - N/A   Clear
10:35 PM 35.6 °F - 19.4 °F 52% 30.34 in 10.0 mi Calm Calm - N/A   Clear
10:55 PM 33.8 °F 30.8 °F 23.0 °F 65% 30.34 in 10.0 mi South 3.5 mph - N/A   Clear
11:15 PM 33.8 °F 30.8 °F 17.6 °F 52% 30.34 in 10.0 mi South 3.5 mph - N/A   Clear
11:35 PM 33.8 °F 30.8 °F 17.6 °F 52% 30.34 in 10.0 mi SSW 3.5 mph - N/A   Clear
11:55 PM 33.8 °F 30.8 °F 17.6 °F 52% 30.34 in 10.0 mi SSW 3.5 mph - N/A   Clear